#timestamp,LO_Frequency,Hit 
1499054415.6,286047031.9,N
1499054435.5,286047032.5,N
1499054455.3,286047034.5,N
1499054475.1,286047033.9,N
1499054495.9,286047035.7,N
1499054515.7,286047036.4,N
1499054535.5,286047034.9,N
1499054555.3,286047037.5,N
1499054575.2,286047037.1,N
1499054595.0,286047036.8,N
1499054595.9,286047036.8,N
1499054615.7,286047036.8,N
1499054635.6,286047037.8,N
1499054655.4,286047037.8,N
1499054675.2,286047036.7,N
1499054695.1,286047036.5,N
1499054696.0,286047036.5,N
1499054715.8,286047039.0,N
1499054735.6,286047038.3,N
1499054755.5,286047041.1,N
1499054775.3,286047041.2,N
1499054795.1,286047040.5,N
1499054815.9,286047038.4,N
1499054835.7,286047039.3,N
1499054855.5,286047039.2,N
1499054875.4,286047039.1,N
1499054895.2,286047038.7,N
1499054915.0,286047039.6,N
1499054915.9,286047039.6,N
1499054935.8,286047037.2,N
1499054955.6,286047037.5,N
1499054975.4,286047037.5,N
1499054995.2,286047037.2,N
1499055015.1,286047038.7,N
1499055016.0,286047038.7,N
1499055035.8,286047038.8,N
1499055055.6,286047038.0,N
1499055075.5,286047037.3,N
1499055095.3,286047037.1,N
1499055115.1,286047038.0,N
1499055135.9,286047036.9,N
1499055155.7,286047038.2,N
1499055175.5,286047037.1,N
1499055195.4,286047038.7,N
1499055215.2,286047036.6,N
1499055235.0,286047038.5,N
1499055235.9,286047038.5,N
1499055255.8,286047038.4,N
1499055275.6,286047039.2,N
1499055295.4,286047040.8,N
1499055315.2,286047039.7,N
1499055335.1,286047038.1,N
1499055336.0,286047038.1,N
1499055355.8,286047038.3,N
1499055375.6,286047038.8,N
1499055395.5,286047038.4,N
1499055415.3,286047039.4,N
1499055435.1,286047039.4,N
1499055455.9,286047038.3,N
1499055475.7,286047038.6,N
1499055495.5,286047037.0,N
1499055515.4,286047037.4,N
1499055535.2,286047035.2,N
1499055555.0,286047035.0,N
1499055555.9,286047035.0,N
1499055575.8,286047035.5,N
1499055595.6,286047037.3,N
1499055615.4,286047036.8,N
1499055635.3,286047037.2,N
1499055655.1,286047037.8,N
1499055656.0,286047037.8,N
1499055675.8,286047037.5,N
1499055695.7,286047036.8,N
1499055715.5,286047040.9,N
1499055735.3,286047039.9,N
1499055755.1,286047038.3,N
1499055775.9,286047039.2,N
1499055795.7,286047037.7,N
1499055815.5,286047039.2,N
1499055835.4,286047036.7,N
1499055855.2,286047037.8,N
1499055875.0,286047039.4,N
1499055875.9,286047039.4,N
1499055895.8,286047040.7,N
1499055915.6,286047039.2,N
1499055935.4,286047039.1,N
1499055955.3,286047040.8,N
1499055975.1,286047041.4,N
1499055976.0,286047041.4,N
1499055995.8,286047040.1,N
1499056015.7,286047040.6,N
1499056035.5,286047041.2,N
1499056055.3,286047038.3,N
1499056075.1,286047040.7,N
1499056095.9,286047040.1,N
1499056115.7,286047040.7,N
1499056135.5,286047038.1,N
1499056155.4,286047038.3,N
1499056175.2,286047038.5,N
1499056195.0,286047040.5,N
1499056195.9,286047040.5,N
1499056215.8,286047040.4,N
1499056235.6,286047039.7,N
1499056255.4,286047038.2,N
1499056275.3,286047039.0,N
1499056295.1,286047039.6,N
1499056296.0,286047039.6,N
1499056315.8,286047036.6,N
1499056335.7,286047037.8,N
1499056355.5,286047037.3,N
1499056375.3,286047034.9,N
1499056395.2,286047039.4,N
1499056415.9,286047038.9,N
1499056435.7,286047038.5,N
1499056455.5,286047039.4,N
1499056475.4,286047039.1,N
1499056495.2,286047039.6,N
1499056515.0,286047038.7,N
1499056515.9,286047038.7,N
1499056535.8,286047039.2,N
1499056555.6,286047037.8,N
1499056575.4,286047036.5,N
1499056595.3,286047038.6,N
1499056615.1,286047039.4,N
1499056635.8,286047037.6,N
1499056655.7,286047033.7,N
1499056675.5,286047034.9,N
1499056695.3,286047037.1,N
1499056715.2,286047037.6,N
1499056735.9,286047035.2,N
1499056755.7,286047037.2,N
1499056775.6,286047039.5,N
1499056795.4,286047033.8,N
1499056815.2,286047032.9,N
1499056835.0,286047032.0,N
1499056836.0,286047032.0,N
1499056855.8,286047032.6,N
1499056875.6,286047030.7,N
1499056895.4,286047032.9,N
1499056915.3,286047037.9,N
1499056935.1,286047040.7,N
1499056955.8,286047038.3,N
1499056975.7,286047039.1,N
1499056995.5,286047038.2,N
1499057015.3,286047040.3,N
1499057035.2,286047044.2,N
1499057055.9,286047043.8,N
1499057075.7,286047043.6,N
1499057095.6,286047040.6,N
1499057115.4,286047041.1,N
1499057135.2,286047036.7,N
1499057155.1,286047037.8,N
1499057156.0,286047037.8,N
1499057175.8,286047036.8,N
1499057195.6,286047035.3,N
1499057215.5,286047036.9,N
1499057235.3,286047037.2,N
1499057255.1,286047036.1,N
1499057275.9,286047033.6,N
1499057295.7,286047037.7,N
1499057315.5,286047036.2,N
1499057335.3,286047035.4,N
1499057355.2,286047038.9,N
1499057375.0,286047036.7,N
1499057375.9,286047036.7,N
1499057395.7,286047039.2,N
1499057415.6,286047039.1,N
1499057435.4,286047038.1,N
1499057455.2,286047039.5,N
1499057475.1,286047035.5,N
1499057476.0,286047035.5,N
1499057495.8,286047035.2,N
1499057515.6,286047035.7,N
1499057535.5,286047035.4,N
1499057555.3,286047035.8,N
1499057575.1,286047035.7,N
1499057595.9,286047036.4,N
1499057615.7,286047033.9,N
1499057635.5,286047036.3,N
1499057655.3,286047035.9,N
1499057675.2,286047036.1,N
1499057695.0,286047037.5,N
1499057695.9,286047037.5,N
1499057715.7,286047037.2,N
1499057735.6,286047039.4,N
1499057755.4,286047038.2,N
1499057775.2,286047039.5,N
1499057795.1,286047038.8,N
1499057796.0,286047038.8,N
1499057815.8,286047037.4,N
1499057835.6,286047038.0,N
1499057855.5,286047034.2,N
1499057875.3,286047033.9,N
1499057895.1,286047033.8,N
1499057915.9,286047035.9,N
1499057935.7,286047034.1,N
1499057955.5,286047034.3,N
1499057975.3,286047033.3,N
1499057995.2,286047036.1,N
